User: anonymous   Login
Location: Holcomb Observatory
(44.4922°N, 73.1654°W)
Time: 10:44:49
(UTC-04:00)
Language:

SL-16 R/B - Orbit

View from above orbital plane
View from above orbital plane
View from above satellite
View from above satellite

Ground track
Ground track

The orbit data is extracted from the following two-line orbital elements,

1 27006U 01056F   17268.94246809 -.00000051 +00000-0 -94567-5 0  9997
2 27006 099.3298 047.0896 0015258 049.7333 056.8402 13.70968840790211
Epoch (UTC): 25 September 2017 22:37:09
Eccentricity: 0.0015258
inclination: 99.3298°
perigee height: 985 km
apogee height: 1007 km
right ascension of ascending node: 47.0896°
argument of perigee: 49.7333°
revolutions per day: 13.70968840
mean anomaly at epoch: 56.8402°
orbit number at epoch: 79021

The dashed part of the orbit path shows where the satellite is in the earth's shadow,  

DLR